N3HBJ Weather Reports


Display with metric or nautical units.
time (UTC)temp
F
wind
direction
speed
MPH
gust
MPH
rain 1hr
in
rain 24hr
in
rain mn
in
humidity
%
barometer
mb
20260506102454 55 49 0.0 0.0 0.06 0.09 0.09 89 1006.9
20260506101956 55 49 0.0 0.0 0.06 0.09 0.09 89 1007.0
20260506101454 55 49 0.0 0.0 0.05 0.08 0.08 89 1007.0
20260506100953 55 49 0.0 0.0 0.04 0.07 0.07 89 1007.1
20260506100454 55 49 0.0 0.0 0.03 0.06 0.07 89 1007.1
20260506100218 55 49 0.0 0.0 0.02 0.05 0.06 89 1007.0
20260506095451 55 49 0.0 0.0 0.03 0.05 0.05 89 1007.1
20260506094952 55 49 0.0 0.0 0.02 0.04 0.04 88 1007.0
20260506094450 56 49 0.0 0.0 0.01 0.03 0.03 88 1007.1
20260506093949 56 49 0.0 0.0 0.01 0.03 0.03 88 1007.1
20260506093447 56 49 0.0 0.0 0.01 0.03 0.03 87 1007.0
20260506093208 56 49 0.0 0.0 0.01 0.03 0.03 87 1006.8
20260506092448 56 49 0.0 1.0 0.01 0.03 0.03 86 1006.6
20260506091946 56 49 0.0 1.0 0.01 0.03 0.03 86 1006.6
20260506091449 56 49 0.0 0.0 0.01 0.03 0.03 87 1006.7
20260506090947 56 49 0.0 0.0 0.01 0.03 0.03 87 1007.1
20260506090448 56 49 0.0 0.0 0.01 0.03 0.03 86 1007.1
20260506085946 56 49 0.0 0.0 0.02 0.03 0.03 86 1007.2
20260506085701 56 49 0.0 0.0 0.01 0.02 0.02 85 1007.3
20260506084941 56 49 0.0 0.0 0.01 0.02 0.02 84 1007.3
20260506084701 56 49 0.0 2.0 0.01 0.02 0.02 84 1007.3
20260506083943 57 49 0.0 2.0 0.01 0.02 0.02 83 1007.2
20260506083439 57 74 0.0 2.0 0.01 0.02 0.02 83 1007.2
20260506082937 57 74 0.0 2.0 0.01 0.02 0.02 83 1007.3
20260506082437 57 74 0.0 1.0 0.01 0.02 0.02 82 1007.4
20260506081937 57 74 0.0 2.0 0.01 0.02 0.02 81 1007.6
20260506081441 58 74 0.0 3.0 0.01 0.02 0.02 80 1007.6
20260506081200 58 75 1.0 4.0 0.01 0.02 0.02 79 1007.7
20260506080437 58 92 1.0 4.0 0.01 0.02 0.02 79 1007.9
20260506073413 59 53 0.0 4.0 0.01 0.01 0.01 74 1007.9
20260506072913 59 111 1.0 8.0 0.01 0.01 0.01 74 1008.0
20260506072413 60 111 2.0 8.0 0.01 0.01 0.01 73 1008.0
20260506071911 60 119 2.0 8.0 0.01 0.01 0.01 73 1008.0
20260506071413 60 117 1.0 12.0 0.01 0.01 0.01 73 1008.2
20260506070908 60 170 2.0 12.0 0.01 0.01 0.01 73 1008.1
20260506070406 60 69 3.0 13.0 0.01 0.01 0.01 73 1008.2
20260506062405 65 184 3.0 14.0 0.00 0.00 0.00 55 1008.4
20260506061905 66 151 3.0 14.0 0.00 0.00 0.00 53 1008.3
20260506061405 67 49 4.0 16.0 0.00 0.00 0.00 49 1008.0
20260506061133 67 94 5.0 16.0 0.00 0.00 0.00 49 1007.9
20260506060401 67 132 3.0 14.0 0.00 0.00 0.00 48 1008.0
20260506050902 59 69 1.0 7.0 0.00 0.00 0.00 72 1008.1
20260506050401 58 105 1.0 8.0 0.00 0.00 0.00 78 1008.1
20260506044857 56 163 0.0 4.0 0.00 0.00 0.00 86 1008.2
20260506044620 56 148 0.0 0.0 0.00 0.00 0.00 87 1008.2
20260506043858 56 148 0.0 0.0 0.00 0.00 0.00 86 1008.2
20260506043357 56 148 0.0 0.0 0.00 0.00 0.00 87 1008.3
20260506042857 56 148 0.0 0.0 0.00 0.00 0.00 87 1008.3
20260506042359 56 148 0.0 0.0 0.00 0.00 0.00 86 1008.4
20260506041853 56 148 0.0 0.0 0.00 0.00 0.00 86 1008.3
20260506041354 56 148 0.0 0.0 0.00 0.00 0.00 87 1008.4
20260506040853 56 148 0.0 0.0 0.00 0.00 0.00 86 1008.4
20260506040610 56 148 0.0 0.0 0.00 0.00 0.00 86 1008.4
20260506040112 56 148 0.0 0.0 0.00 0.00 0.00 86 1008.4
20260506035352 56 148 0.0 0.0 0.00 0.00 0.00 86 1008.4
20260506034847 56 148 0.0 0.0 0.00 0.00 0.00 86 1008.4
20260506034345 56 148 0.0 0.0 0.00 0.00 0.00 86 1008.3
20260506033844 56 148 0.0 0.0 0.00 0.00 0.00 86 1008.3
20260506033345 56 148 0.0 0.0 0.00 0.00 0.00 86 1008.3
20260506032843 56 148 0.0 0.0 0.00 0.00 0.00 85 1008.3
20260506032342 56 148 0.0 0.0 0.00 0.00 0.00 84 1008.2
20260506032107 57 148 0.0 0.0 0.00 0.00 0.00 84 1008.2
20260506031817 57 148 0.0 0.0 0.00 0.00 0.00 84 1008.2
20260506030841 57 148 0.0 0.0 0.00 0.00 0.00 84 1008.1
20260506030340 57 148 0.0 0.0 0.00 0.00 0.00 84 1008.1
20260506025838 57 148 0.0 0.0 0.00 0.00 0.00 84 1008.3
20260506025338 57 148 0.0 0.0 0.00 0.00 0.00 84 1008.4
20260506024839 57 148 0.0 0.0 0.00 0.00 0.00 84 1008.3
20260506024338 58 148 0.0 0.0 0.00 0.00 0.00 85 1008.6
20260506023834 58 148 0.0 0.0 0.00 0.00 0.00 85 1008.6
20260506023329 58 148 0.0 0.0 0.00 0.00 0.00 84 1008.6
20260506022829 58 148 0.0 0.0 0.00 0.00 0.00 84 1008.6
20260506022551 58 148 0.0 0.0 0.00 0.00 0.00 84 1008.6
20260506021825 58 148 0.0 0.0 0.00 0.00 0.00 83 1008.8
20260506021325 58 148 0.0 0.0 0.00 0.00 0.00 83 1008.6
20260506020841 58 148 0.0 0.0 0.00 0.00 0.00 83 1008.7
20260506020325 58 148 0.0 0.0 0.00 0.00 0.00 83 1008.6
20260506015825 59 148 0.0 0.0 0.00 0.00 0.00 82 1008.6
20260506015324 59 148 0.0 0.0 0.00 0.00 0.00 82 1008.6
20260506014825 59 148 0.0 0.0 0.00 0.00 0.00 82 1008.6
20260506014815 59 148 0.0 0.0 0.00 0.00 0.00 82 1008.7
20260506013824 59 148 0.0 0.0 0.00 0.00 0.00 82 1008.6
20260506013324 60 148 0.0 0.0 0.00 0.00 0.00 81 1008.6
20260506012824 60 148 0.0 0.0 0.00 0.00 0.00 81 1008.6
20260506012323 60 148 0.0 0.0 0.00 0.00 0.00 80 1008.6
20260506011823 60 148 0.0 0.0 0.00 0.00 0.00 80 1008.6
20260506011323 60 148 0.0 0.0 0.00 0.00 0.00 79 1008.6
20260506010823 61 148 0.0 0.0 0.00 0.00 0.00 79 1008.6
20260506010325 61 148 0.0 0.0 0.00 0.00 0.00 78 1008.6
20260506005822 61 148 0.0 0.0 0.00 0.00 0.00 78 1008.6
20260506005322 61 148 0.0 0.0 0.00 0.00 0.00 78 1008.4
20260506004822 62 148 0.0 0.0 0.00 0.00 0.00 77 1008.4
20260506004325 62 148 0.0 0.0 0.00 0.00 0.00 77 1008.3
20260506004049 62 148 0.0 0.0 0.00 0.00 0.00 76 1008.4
20260506003324 62 148 0.0 0.0 0.00 0.00 0.00 76 1008.4
20260506002822 63 148 0.0 0.0 0.00 0.00 0.00 75 1008.6
20260506002320 63 148 0.0 0.0 0.00 0.00 0.00 75 1008.4
20260506001820 64 148 0.0 0.0 0.00 0.00 0.00 74 1008.3
20260506001320 64 148 0.0 0.0 0.00 0.00 0.00 74 1008.4
20260506000821 64 148 0.0 0.0 0.00 0.00 0.00 73 1008.3
20260506000323 65 148 0.0 0.0 0.00 0.00 0.00 73 1008.1
20260505235820 65 148 0.0 0.0 0.00 0.00 0.00 71 1008.2
20260505235318 65 148 0.0 0.0 0.00 0.00 0.00 72 1008.3
20260505234818 65 148 0.0 0.0 0.00 0.00 0.00 72 1008.3
20260505234318 66 148 0.0 0.0 0.00 0.00 0.00 72 1008.4
20260505233822 67 148 0.0 0.0 0.00 0.00 0.00 71 1008.2
20260505233818 66 148 0.0 0.0 0.00 0.00 0.00 71 1008.3
20260505232816 67 148 0.0 0.0 0.00 0.00 0.00 69 1008.1
20260505232316 67 148 0.0 0.0 0.00 0.00 0.00 68 1008.0
20260505231829 68 148 0.0 0.0 0.00 0.00 0.00 67 1008.0
20260505231315 68 148 0.0 0.0 0.00 0.00 0.00 67 1008.0
20260505230817 68 148 0.0 0.0 0.00 0.00 0.00 64 1007.9
20260505230316 69 148 0.0 0.0 0.00 0.00 0.00 64 1007.9
20260505225816 69 148 0.0 0.0 0.00 0.00 0.00 63 1007.9
20260505225539 69 148 0.0 1.0 0.00 0.00 0.00 63 1007.9
20260505224813 69 148 0.0 1.0 0.00 0.00 0.00 63 1008.0
20260505224312 69 148 0.0 0.0 0.00 0.00 0.00 66 1008.0
20260505223812 69 148 0.0 0.0 0.00 0.00 0.00 65 1008.1
20260505223312 69 148 0.0 0.0 0.00 0.00 0.00 63 1008.2
20260505223032 69 148 0.0 3.0 0.00 0.00 0.00 62 1008.2
20260505222312 69 148 0.0 3.0 0.00 0.00 0.00 63 1008.2
20260505221812 68 53 0.0 2.0 0.00 0.00 0.00 62 1008.2
20260505221313 68 53 0.0 2.0 0.00 0.00 0.00 64 1008.1
20260505221035 68 53 0.0 3.0 0.00 0.00 0.00 63 1008.2
20260505220312 68 53 0.0 5.0 0.00 0.00 0.00 63 1008.2
20260505215813 68 82 0.0 5.0 0.00 0.00 0.00 64 1008.3
20260505215309 68 169 0.0 4.0 0.00 0.00 0.00 65 1008.3
20260505214810 68 152 0.0 3.0 0.00 0.00 0.00 65 1008.3
20260505214308 67 267 0.0 2.0 0.00 0.00 0.00 67 1008.3
20260505213808 67 146 0.0 1.0 0.00 0.00 0.00 66 1008.3
20260505213307 67 146 0.0 1.0 0.00 0.00 0.00 67 1008.3
20260505212804 67 146 0.0 3.0 0.00 0.00 0.00 65 1008.3
20260505212306 67 146 1.0 3.0 0.00 0.00 0.00 65 1008.6
20260505211803 67 122 1.0 3.0 0.00 0.00 0.00 66 1008.4
20260505211301 67 96 1.0 3.0 0.00 0.00 0.00 68 1008.6
20260505210800 67 100 0.0 3.0 0.00 0.00 0.00 66 1008.4
20260505210258 67 106 0.0 6.0 0.00 0.00 0.00 66 1008.3
20260505205756 67 161 1.0 6.0 0.00 0.00 0.00 68 1008.4
20260505205255 67 153 1.0 5.0 0.00 0.00 0.00 64 1008.3
20260505204753 68 129 1.0 9.0 0.00 0.00 0.00 64 1008.3
20260505204250 70 122 2.0 9.0 0.00 0.00 0.00 58 1008.2
20260505203749 71 86 3.0 12.0 0.00 0.00 0.00 52 1008.2
20260505203250 71 90 3.0 12.0 0.00 0.00 0.00 51 1008.1
20260505202751 72 75 1.0 9.0 0.00 0.00 0.00 49 1007.9
20260505202250 72 110 3.0 11.0 0.00 0.00 0.00 48 1007.9
20260505201748 72 150 3.0 11.0 0.00 0.00 0.00 49 1008.0
20260505201250 72 159 3.0 11.0 0.00 0.00 0.00 47 1007.8
20260505200747 72 197 3.0 13.0 0.00 0.00 0.00 47 1007.9
20260505200248 72 113 4.0 13.0 0.00 0.00 0.00 47 1007.8
20260505195747 73 157 3.0 10.0 0.00 0.00 0.00 48 1007.8
20260505195248 72 100 2.0 9.0 0.00 0.00 0.00 48 1007.9
20260505194747 72 135 1.0 7.0 0.00 0.00 0.00 48 1007.9
20260505194249 72 172 2.0 7.0 0.00 0.00 0.00 49 1007.9
20260505193746 72 177 4.0 14.0 0.00 0.00 0.00 49 1007.9
20260505193249 72 184 5.0 16.0 0.00 0.00 0.00 47 1008.0
20260505192743 73 51 6.0 16.0 0.00 0.00 0.00 45 1008.2
20260505192244 73 216 6.0 17.0 0.00 0.00 0.00 44 1008.2
20260505191741 73 112 5.0 17.0 0.00 0.00 0.00 43 1007.9
20260505191503 73 106 3.0 13.0 0.00 0.00 0.00 44 1008.0
20260505190740 73 72 5.0 21.0 0.00 0.00 0.00 43 1007.9
20260505190242 73 84 5.0 21.0 0.00 0.00 0.00 43 1008.0
20260505185739 73 71 3.0 12.0 0.00 0.00 0.00 43 1007.9
20260505185240 74 160 4.0 13.0 0.00 0.00 0.00 42 1008.0
20260505184739 74 91 6.0 15.0 0.00 0.00 0.00 42 1008.0
20260505184242 74 88 5.0 15.0 0.00 0.00 0.00 42 1008.0
20260505183959 74 63 5.0 15.0 0.00 0.00 0.00 41 1007.9
20260505183240 74 71 4.0 14.0 0.00 0.00 0.00 44 1007.8
20260505183000 74 232 2.0 10.0 0.00 0.00 0.00 43 1007.6
20260505182722 74 178 3.0 14.0 0.00 0.00 0.00 44 1007.6
20260505181959 74 130 3.0 14.0 0.00 0.00 0.00 45 1007.6
20260505181506 73 69 5.0 20.0 0.00 0.00 0.00 43 1007.7
20260505180744 73 91 5.0 20.0 0.00 0.00 0.00 42 1007.7
20260505180239 73 106 3.0 12.0 0.00 0.00 0.00 44 1007.6
20260505175738 73 99 4.0 11.0 0.00 0.00 0.00 43 1007.6
20260505175238 72 110 5.0 11.0 0.00 0.00 0.00 44 1007.8
20260505174738 72 81 5.0 12.0 0.00 0.00 0.00 43 1007.8
20260505174238 73 76 5.0 13.0 0.00 0.00 0.00 43 1007.9
20260505173954 73 158 5.0 14.0 0.00 0.00 0.00 42 1007.9
20260505173456 73 60 6.0 17.0 0.00 0.00 0.00 42 1008.0
20260505172731 72 149 7.0 17.0 0.00 0.00 0.00 42 1008.0
20260505172230 72 124 7.0 19.0 0.00 0.00 0.00 44 1008.3
20260505171730 73 175 7.0 19.0 0.00 0.00 0.00 43 1008.3
20260505171454 73 58 7.0 15.0 0.00 0.00 0.00 42 1008.3
20260505170731 73 92 7.0 19.0 0.00 0.00 0.00 43 1008.3
20260505170230 73 42 6.0 19.0 0.00 0.00 0.00 42 1008.3
20260505165953 73 68 7.0 15.0 0.00 0.00 0.00 45 1008.3
20260505165233 72 178 9.0 28.0 0.00 0.00 0.00 44 1008.4
20260505164729 72 134 7.0 28.0 0.00 0.00 0.00 44 1008.6
20260505164232 72 128 8.0 29.0 0.00 0.00 0.00 45 1008.3
20260505163954 72 101 7.0 29.0 0.00 0.00 0.00 44 1008.4
20260505163235 72 101 5.0 15.0 0.00 0.00 0.00 46 1008.4
20260505162729 71 87 5.0 17.0 0.00 0.00 0.00 48 1008.4
20260505162229 71 78 5.0 17.0 0.00 0.00 0.00 46 1008.3
20260505161727 71 80 5.0 17.0 0.00 0.00 0.00 47 1008.6
20260505161227 71 85 6.0 17.0 0.00 0.00 0.00 48 1008.6
20260505160728 71 37 5.0 17.0 0.00 0.00 0.00 47 1008.7
20260505160709 71 153 5.0 19.0 0.00 0.00 0.00 48 1008.6
20260505153227 71 203 7.0 22.0 0.00 0.00 0.00 49 1009.2
20260505152727 71 136 5.0 18.0 0.00 0.00 0.00 48 1009.2
20260505152227 70 59 5.0 17.0 0.00 0.00 0.00 50 1009.3
20260505151943 70 140 6.0 17.0 0.00 0.00 0.00 49 1009.3
20260505151226 70 242 5.0 20.0 0.00 0.00 0.00 51 1009.4
20260505150945 70 167 5.0 20.0 0.00 0.00 0.00 51 1009.3
20260505150225 70 150 4.0 16.0 0.00 0.00 0.00 50 1009.3
20260505140225 70 165 7.0 20.0 0.00 0.00 0.00 50 1009.0
20260505130225 68 51 6.0 17.0 0.00 0.00 0.00 55 1009.0
20260505124724 67 137 5.0 14.0 0.00 0.00 0.00 56 1009.1
20260505124227 67 79 4.0 13.0 0.00 0.00 0.00 58 1009.2
20260505123726 67 165 3.0 11.0 0.00 0.00 0.00 57 1009.1
20260505123227 67 98 3.0 11.0 0.00 0.00 0.00 56 1009.1
20260505122724 67 137 3.0 11.0 0.00 0.00 0.00 58 1009.1
20260505122224 66 86 4.0 11.0 0.00 0.00 0.00 58 1009.2
20260505121725 66 111 3.0 13.0 0.00 0.00 0.00 57 1009.2
20260505121222 66 135 4.0 13.0 0.00 0.00 0.00 58 1009.3
20260505120725 66 110 6.0 16.0 0.00 0.00 0.00 59 1009.2
20260505120222 65 145 5.0 16.0 0.00 0.00 0.00 58 1009.4
20260505115724 65 79 3.0 9.0 0.00 0.00 0.00 60 1009.4
20260505115222 65 80 3.0 14.0 0.00 0.00 0.00 59 1009.4
20260505114721 64 123 4.0 14.0 0.00 0.00 0.00 60 1009.4
20260505114445 64 111 5.0 14.0 0.00 0.00 0.00 60 1009.4
20260505113721 64 78 4.0 14.0 0.00 0.00 0.00 61 1009.2
20260505113224 64 114 4.0 16.0 0.00 0.00 0.00 61 1009.2
20260505112942 64 91 4.0 16.0 0.00 0.00 0.00 61 1009.2
20260505112221 64 82 3.0 9.0 0.00 0.00 0.00 61 1009.2
20260505111721 63 161 3.0 12.0 0.00 0.00 0.00 61 1009.2
20260505111233 63 165 3.0 12.0 0.00 0.00 0.00 61 1009.1
20260505110721 63 145 3.0 9.0 0.00 0.00 0.00 62 1009.0
20260505110220 63 130 2.0 9.0 0.00 0.00 0.00 61 1008.9